Torna al catalogo

FALCON 9 DEB

AttivoVLEO
NORAD 48609·DEBRIS·🇺🇸 United States

Lanciato May 15, 2021 da Cape Canaveral Space Force Station

Loading…

Prossimi Passaggi (prossime 24 ore)

TLE

AggiornatoSource: Space-Track

Epoca: Sep 14, 2026, 10:22 UTC

1 48609U 21041BJ  26257.43218506  .00003070  00000-0  18786-3 0  9999
2 48609  53.0294  44.0755 0009792  39.3985 320.7717 15.13159473293001

Traccia FALCON 9 DEB in tempo reale con AllMySat

Download on the App Store